Regional Weather Roundup
Issued by NWS Albany, NY

Home | Current Version | Previous Version | Text Only | Print | Product List | Glossary On
Versions: 1 2 3 4 5 6 7 8 9 10 11 12 13 14 15 16 17 18 19 20 21 22 23 24 25 26 27 28 29 30 31 32 33 34 35 36 37 38 39 40 41 42 43 44 45 46 47 48 49 50
000
ASUS41 KALY 221310
RWRALY

NEW YORK STATE HOURLY WEATHER ROUNDUP
NATIONAL WEATHER SERVICE ALBANY NY
900 AM EDT TUE JUL 22 2014

NOTE: "FAIR" INDICATES FEW OR NO CLOUDS BELOW 12,000 FEET WITH NO
SIGNIFICANT WEATHER AND/OR NO OBSTRUCTIONS TO VISIBILITY.

NYZ032-033-038>043-046>054-057>066-NYZ062>081-221400-
EAST


CITY           SKY/WX    TMP DP  RH WIND       PRES   REMARKS
ALBANY         SUNNY     75  66  73 S6        30.15F
GLENS FALLS    SUNNY     73  66  78 S9        30.14S
POUGHKEEPSIE   SUNNY     75  65  70 SW5       30.15F
NEWBURGH       SUNNY     75  68  78 CALM      30.18F
MONTGOMERY     SUNNY     74  67  78 S7        30.16F
WHITE PLAINS   SUNNY     75  65  70 W5        30.17F
ISLIP          MOSUNNY   78  64  61 W5        30.16S
NEW YORK CITY  MOSUNNY   79  64  60 CALM      30.17S
CENTRAL PARK   SUNNY     76  64  66 CALM      30.20F
$$

NYZ005>009-017-018-044>046-055-056-221400-
CENTRAL


CITY           SKY/WX    TMP DP  RH WIND       PRES   REMARKS
FULTON         SUNNY     75  68  78 SW5       30.13F
SYRACUSE       MOSUNNY   77  67  71 CALM      30.13F
ROME           PTSUNNY   73  66  78 CALM      30.15F
ELMIRA         CLOUDY    76  69  79 SW5       30.16S
BINGHAMTON     MOSUNNY   71  66  84 W8        30.19F
MONTICELLO     SUNNY     70  66  88 W3        30.22F
$$

NYZ026>034-041>043-221400-
NORTH


CITY           SKY/WX    TMP DP  RH WIND       PRES   REMARKS
WATERTOWN      SUNNY     76  65  68 SW5       30.14R
FORT DRUM      NOT AVBL
MASSENA        PTSUNNY   73  65  75 SW7       30.13R
SARANAC LAKE   SUNNY     69  64  84 SW7       30.16S
PLATTSBURGH    SUNNY     74  66  76 E5        30.11R
$$

NYZ001>004-010>016-019>021-221400-
WEST


CITY           SKY/WX    TMP DP  RH WIND       PRES   REMARKS
NIAGARA FALLS  SUNNY     72  64  76 SW5       30.12F
BUFFALO        SUNNY     72  62  71 S6        30.13F
DUNKIRK        SUNNY     74  63  68 MISG      30.14S
JAMESTOWN      SUNNY     68  66  94 S7        30.19S
WELLSVILLE     CLOUDY    73  66  78 SW5       30.23S
ROCHESTER      SUNNY     73  66  78 SW5       30.14S
PENN YAN       SUNNY     74  68  81 S5        30.16S
$$

             KEY
       WCI = WIND CHILL INDEX
       VSB = VISIBILITY
       HX  = HEAT INDEX
$$


USA.gov is the U.S. government's official web portal to all federal, state and local government web resources and services.